Flag for U.S.A. Weather past 2 weeks in Los Angeles, California, U.S.A.

Now
68 °F

Clear.


Feels Like: 68 °F
Forecast: 66 / 87 °F
Wind: No wind

Location: Los Angeles / USC Campus Downtown

Current Time: Aug 4, 2015 at 5:25:09 AM

Latest Report: Aug 4, 2015 at 4:47 AM


Visibility: 10 mi

Pressure: 29.86 "Hg

Humidity: 78%

Dew point: 61 °F

Location of Los AngelesLocation

Historic Weather in Los Angeles — Graph

°F

Los Angeles temperature yesterday

Maximum temperature yesterday: 83 °F (at 11:47 AM)
Minimum temperature yesterday: 67 °F (at 4:47 AM)
Average temperature yesterday: 74 °F

Past Weeks' High & Low Weather Summary

 TemperatureHumidityPressure
High86 °F (Jul 25, 11:47 AM)93% (Aug 1, 1:47 AM)30.07 "Hg (Aug 1, 1:47 AM)
Low65 °F (Jul 29, 3:47 AM)44% (Jul 25, 3:47 PM)29.81 "Hg (Aug 2, 6:47 PM)
Average73 °F73%29.92 "Hg
* Reported Jul 20 3:47 AM — Aug 4 3:47 AM, Los Angeles, Weather by CustomWeather, © 2015

Note: Actual official high and low records may vary slightly from our data, if they occured in-between our weather recording intervals... More about our weather records

Advertising

Los Angeles weather history for previous 24 hours

 ConditionsComfort  
Time TempWeatherWind HumidityBarometerVisibility
3:47 AM
Tue, Aug 4
68 °FClear.No wind78%29.86 "Hg10 mi
2:47 AM69 °FClear.No wind81%29.85 "Hg10 mi
1:47 AM69 °FClear.No wind81%29.86 "Hg10 mi
12:47 AM70 °FClear.No wind76%29.87 "Hg10 mi
11:47 PM
Mon, Aug 3
71 °FClear.3 mph73%29.86 "Hg10 mi
10:47 PM72 °FClear.No wind66%29.86 "Hg10 mi
9:47 PM72 °FClear.No wind68%29.86 "Hg10 mi
8:47 PM71 °FSunny.No wind71%29.85 "Hg10 mi
7:47 PM73 °FSunny.No wind66%29.85 "Hg10 mi
6:47 PM75 °FSunny.3 mph58%29.84 "Hg10 mi
5:47 PM77 °FSunny.3 mph60%29.84 "Hg10 mi
4:47 PM78 °FSunny.3 mph60%29.85 "Hg10 mi
3:47 PM79 °FSunny.No wind60%29.85 "Hg10 mi
1:47 PM78 °FSunny.No wind64%29.89 "Hg10 mi
12:47 PM82 °FSunny.N/A56%29.88 "Hg10 mi
11:47 AM83 °FSunny.N/A55%29.88 "Hg10 mi
10:47 AM82 °FSunny.No wind55%29.89 "Hg10 mi
9:47 AM78 °FSunny.No wind64%29.90 "Hg10 mi
8:47 AM74 °FOvercast.3 mph71%29.89 "Hg8 mi
7:57 AM72 °FPartly sunny.3 mph73%29.89 "Hg10 mi
7:47 AM71 °FScattered clouds.3 mph78%29.88 "Hg10 mi
6:47 AM69 °FClear.No wind81%29.88 "Hg10 mi
5:47 AM68 °FOvercast.No wind87%29.87 "Hg9 mi
Weather by CustomWeather, © 2015

See weather overviewHow to use our weather pages